Fredericksburg, TX

10:51 AM CDT on May 25, 2018 (GMT -0500)
Fredericksburg

Weather History for KT82 - December, 2012

Change the Weather History Date:

Wednesday, December 5, 2012

  Actual Average (KSAT) Record (KSAT)
Temperature  
Mean Temperature 53 °F -  
Max Temperature 71 °F 67 °F 85 °F (1977)
Min Temperature 35 °F 45 °F 17 °F (1886)
Degree Days  
Heating Degree Days 12    
Growing Degree Days 3 (Base 50)    
Moisture  
Dew Point 30 °F    
Average Humidity 46    
Maximum Humidity 84    
Minimum Humidity 19    
Precipitation  
Precipitation 0.00 in - - ()
Sea Level Pressure  
Sea Level Pressure 30.18 in    
Wind  
Wind Speed 4 mph (NNW)    
Max Wind Speed 8 mph    
Max Gust Speed -    
Visibility 9 miles    
Events      
Averages and records for this station are not official NWS values.
T = Trace of Precipitation, MM = Missing Value Source: NWS Daily Summary

Daily Weather History Graph

Daily Weather History Graph

Search for Another Location

Airport or City:

Astronomy

Dec. 05, 2012 Rise Set
Actual Time 7:18 AM CST 5:35 PM CST
Civil Twilight 6:51 AM CST 6:01 PM CST
Nautical Twilight 6:22 AM CST 6:31 PM CST
Astronomical Twilight 5:52 AM CST 7:00 PM CST
Moon No Moon Rise 12:01 PM CST (12/5)
Length of Visible Light 11h 09m
Length of Day
10h 17m
Waning Gibbous, 59% of the Moon is Illuminated
Dec 5
Waning Gibbous
Dec 6
Last Quarter
Dec 13
New
Dec 19
First Quarter
Dec 28
Full

Hourly Weather History & Observations

Time (CST) Temp. Windchill Dew Point Humidity Pressure Visibility Wind Dir Wind Speed Gust Speed Precip Events Conditions
12:15 AM 48.2 °F - 35.1 °F 60% 30.26 in 10.0 mi North 5.8 mph - N/A   Clear
12:35 AM 49.1 °F - 35.2 °F 59% 30.26 in 10.0 mi NNW 5.8 mph - N/A   Clear
12:55 AM 46.6 °F - 33.8 °F 61% 30.25 in 10.0 mi North 6.9 mph - N/A   Clear
1:15 AM 45.3 °F 42.3 °F 33.6 °F 64% 30.25 in 10.0 mi North 5.8 mph - N/A   Clear
1:35 AM 43.5 °F 40.1 °F 33.4 °F 68% 30.25 in 10.0 mi North 5.8 mph - N/A   Clear
1:55 AM 46.4 °F - 32.0 °F 57% 30.25 in 10.0 mi Calm Calm - N/A   Clear
2:15 AM 45.7 °F 43.4 °F 32.0 °F 59% 30.26 in 10.0 mi NNW 4.6 mph - N/A   Clear
2:35 AM 38.8 °F 35.4 °F 32.4 °F 78% 30.26 in 10.0 mi NNW 4.6 mph - N/A   Clear
2:55 AM 39.4 °F 34.5 °F 32.5 °F 76% 30.26 in 10.0 mi North 6.9 mph - N/A   Clear
3:15 AM 39.9 °F 34.5 °F 32.0 °F 73% 30.26 in 10.0 mi North 8.1 mph - N/A   Clear
3:35 AM 39.2 °F 34.2 °F 32.0 °F 75% 30.26 in 10.0 mi North 6.9 mph - N/A   Clear
3:55 AM 41.2 °F 39.2 °F 31.1 °F 67% 30.26 in 10.0 mi North 3.5 mph - N/A   Clear
4:15 AM 37.6 °F 35.1 °F 31.3 °F 78% 30.26 in 10.0 mi NNE 3.5 mph - N/A   Clear
4:35 AM 43.5 °F 40.9 °F 29.8 °F 59% 30.25 in 10.0 mi North 4.6 mph - N/A   Clear
4:55 AM 40.6 °F 36.7 °F 30.2 °F 66% 30.25 in 10.0 mi North 5.8 mph - N/A   Clear
5:15 AM 39.2 °F 35.0 °F 30.2 °F 70% 30.24 in 10.0 mi North 5.8 mph - N/A   Clear
5:35 AM 36.9 °F - 31.5 °F 81% 30.25 in 10.0 mi Calm Calm - N/A   Clear
5:55 AM 36.9 °F - 30.6 °F 78% 30.25 in 10.0 mi Calm Calm - N/A   Clear
6:15 AM 36.7 °F 31.2 °F 30.9 °F 80% 30.25 in 10.0 mi NW 6.9 mph - N/A   Clear
6:35 AM 35.4 °F 30.5 °F 30.9 °F 84% 30.25 in 10.0 mi NW 5.8 mph - N/A   Clear
6:55 AM 36.5 °F 31.0 °F 30.0 °F 77% 30.26 in 10.0 mi North 6.9 mph - N/A   Clear
8:55 AM 48.4 °F - 30.7 °F 51% 30.27 in 10.0 mi NNW 4.6 mph - N/A   Clear
9:15 AM 51.8 °F - 31.1 °F 45% 30.27 in 10.0 mi NNW 4.6 mph - N/A   Clear
9:35 AM 54.0 °F - 31.6 °F 43% 30.27 in 10.0 mi NW 4.6 mph - N/A   Clear
9:55 AM 56.3 °F - 32.5 °F 41% 30.27 in 10.0 mi Calm Calm - N/A   Clear
10:15 AM 58.1 °F - 32.4 °F 38% 30.26 in 10.0 mi Calm Calm - N/A   Clear
10:35 AM 60.4 °F - 32.5 °F 35% 30.26 in 10.0 mi NW 3.5 mph - N/A   Clear
10:55 AM 62.8 °F - 28.8 °F 28% 30.26 in 10.0 mi North 5.8 mph - N/A   Clear
11:15 AM 64.2 °F - 27.3 °F 25% 30.25 in 10.0 mi NNE 3.5 mph - N/A   Clear
11:35 AM 64.4 °F - 28.2 °F 26% 30.25 in 10.0 mi Calm Calm - N/A   Clear
11:55 AM 65.8 °F - 26.2 °F 22% 30.23 in 10.0 mi Calm Calm - N/A   Clear
12:15 PM 66.4 °F - 27.7 °F 23% 30.21 in 10.0 mi Calm Calm - N/A   Clear
12:35 PM 67.1 °F - 27.7 °F 23% 30.20 in 10.0 mi Calm Calm - N/A   Clear
12:55 PM 68.4 °F - 27.7 °F 22% 30.18 in 10.0 mi NNE 4.6 mph - N/A   Clear
1:15 PM 69.6 °F - 27.9 °F 21% 30.16 in 10.0 mi Calm Calm - N/A   Clear
1:35 PM 70.0 °F - 27.3 °F 20% 30.15 in 10.0 mi Calm Calm - N/A   Clear
1:55 PM 70.5 °F - 27.1 °F 20% 30.14 in 10.0 mi Calm Calm - N/A   Clear
2:15 PM 70.3 °F - 28.2 °F 21% 30.13 in 10.0 mi Calm Calm - N/A   Clear
2:35 PM 71.6 °F - 28.4 °F 20% 30.11 in 10.0 mi NNE 3.5 mph - N/A   Clear
2:55 PM 71.8 °F - 29.3 °F 21% 30.11 in 10.0 mi North 3.5 mph - N/A   Clear
3:15 PM 71.4 °F - 27.7 °F 20% 30.10 in 10.0 mi Calm Calm - N/A   Clear
3:35 PM 71.1 °F - 27.1 °F 19% 30.10 in 10.0 mi Calm Calm - N/A   Clear
3:55 PM 71.6 °F - 28.2 °F 20% 30.09 in 10.0 mi SSE 5.8 mph - N/A   Clear
4:15 PM 71.6 °F - 27.9 °F 20% 30.09 in 7.0 mi ESE 3.5 mph - N/A   Clear
4:35 PM 70.7 °F - 27.5 °F 20% 30.09 in 7.0 mi SSE 3.5 mph - N/A   Clear
4:55 PM 69.8 °F - 27.5 °F 21% 30.09 in 5.0 mi Calm Calm - N/A   Haze
5:15 PM 69.1 °F - 27.3 °F 21% 30.09 in 4.0 mi Calm Calm - N/A   Haze
5:35 PM 66.6 °F - 26.6 °F 22% 30.08 in 3.0 mi Calm Calm - N/A   Haze
5:55 PM 62.1 °F - 27.0 °F 26% 30.09 in 4.0 mi Calm Calm - N/A   Haze
6:15 PM 61.3 °F - 26.2 °F 26% 30.09 in 5.0 mi Calm Calm - N/A   Haze
6:35 PM 60.1 °F - 26.6 °F 28% 30.09 in 5.0 mi Calm Calm - N/A   Haze
6:55 PM 57.4 °F - 27.3 °F 32% 30.08 in 4.0 mi Calm Calm - N/A   Haze
7:15 PM 52.5 °F - 27.9 °F 39% 30.09 in 10.0 mi Calm Calm - N/A   Clear
7:35 PM 50.5 °F - 28.4 °F 42% 30.09 in 10.0 mi Calm Calm - N/A   Clear
7:55 PM 47.8 °F - 29.7 °F 49% 30.09 in 10.0 mi Calm Calm - N/A   Clear
8:15 PM 45.1 °F - 32.5 °F 61% 30.09 in 10.0 mi Calm Calm - N/A   Clear
8:35 PM 43.0 °F 41.3 °F 31.8 °F 65% 30.09 in 10.0 mi NW 3.5 mph - N/A   Clear
8:55 PM 43.0 °F 41.3 °F 31.6 °F 64% 30.09 in 10.0 mi NW 3.5 mph - N/A   Clear
9:15 PM 43.2 °F - 31.3 °F 63% 30.09 in 10.0 mi Calm Calm - N/A   Clear
9:35 PM 42.4 °F 39.6 °F 30.9 °F 64% 30.09 in 10.0 mi NNW 4.6 mph - N/A   Clear
9:55 PM 41.9 °F 40.0 °F 30.2 °F 63% 30.09 in 10.0 mi NW 3.5 mph - N/A   Clear